This is the latest recevied weather packets stored in our database for station/object N5JXS. If no packets are shown the sender has not sent any weather packets the latest 10 day(s).
| Time | Temp. | Humidity | Pressure | Rain* | Wind** | Luminosity | Snow |
|---|---|---|---|---|---|---|---|
| 1788231684 | 15° C | 72% | 1028.2 hPa | 0 mm | - | 0 W/m² | - |
| 1788231384 | 15° C | 73% | 1028.1 hPa | 0 mm | - | 0 W/m² | - |
| 1788231078 | 15° C | 74% | 1028 hPa | 0 mm | - | 0 W/m² | - |
| 1788230773 | 15° C | 77% | 1028.1 hPa | 0 mm | - | 0 W/m² | - |
| 1788230472 | 15° C | 76% | 1028.1 hPa | 0 mm | - | 0 W/m² | - |
| 1788230171 | 15° C | 76% | 1027.7 hPa | 0 mm | - | 0 W/m² | - |
| 1788229866 | 15° C | 77% | 1027.7 hPa | 0 mm | - | 0 W/m² | - |
| 1788229561 | 15° C | 78% | 1027.8 hPa | 0 mm | - | 0 W/m² | - |
| 1788229256 | 15.56° C | 74% | 1028.1 hPa | 0 mm | - | 0 W/m² | - |
| 1788228952 | 16.11° C | 69% | 1028.1 hPa | 0 mm | - | 0 W/m² | - |
| 1788228647 | 16.11° C | 68% | 1028.2 hPa | 0 mm | - | 0 W/m² | - |
| 1788228343 | 16.11° C | 69% | 1027.8 hPa | 0 mm | - | 0 W/m² | - |
| 1788228038 | 16.67° C | 69% | 1027.8 hPa | 0 mm | - | 0 W/m² | - |
| 1788227733 | 17.78° C | 64% | 1027.6 hPa | 0 mm | - | 0 W/m² | - |
| 1788227433 | 20° C | 53% | 1027.3 hPa | 0 mm | - | 0 W/m² | - |
| 1788227129 | 20° C | 48% | 1027.1 hPa | 0 mm | - | 0 W/m² | - |
| 1788226843 | 20° C | 48% | 1026.6 hPa | 0 mm | - | 0 W/m² | - |
| 1788226520 | 20° C | 48% | 1026.2 hPa | 0 mm | - | 0 W/m² | - |
| 1788226216 | 20° C | 46% | 1026 hPa | 0 mm | - | 0 W/m² | - |
| 1788225915 | 20° C | 47% | 1026.1 hPa | 0 mm | - | 0 W/m² | - |
| 1788225611 | 20.56° C | 47% | 1026.1 hPa | 0 mm | - | 1 W/m² | - |
| 1788225307 | 20.56° C | 47% | 1026 hPa | 0 mm | - | 5 W/m² | - |
| 1788225004 | 20.56° C | 46% | 1026.1 hPa | 0 mm | - | 9 W/m² | - |
| 1788224700 | 21.11° C | 46% | 1026 hPa | 0 mm | - | 12 W/m² | - |
| 1788224399 | 21.11° C | 46% | 1026.1 hPa | 0 mm | - | 15 W/m² | - |
* Rain latest hour (hover to see other rain measurements)
** Current wind speed in m/s (hover to see current wind gust speed)